Flag for Germany Weather past 2 weeks in Bad Nauheim, Hesse, Germany

Now
50 °F

Fog.


Feels Like: 48 °F
Forecast: 39 / 62 °F
Wind: 5 mph from Southwest

Location: Giessen

Current Time: Sep 22, 2014 at 7:06:26 AM

Latest Report: Sep 22, 2014 at 6:00 AM


Visibility: 4 mi

Pressure: 30.08 "Hg

Humidity: 94%

Dew point: 48 °F

Location of Bad NauheimLocation

Historic Weather in Bad Nauheim — Graph

°F

Bad Nauheim temperature yesterday

Maximum temperature yesterday: 62 °F (at 1:00 PM)
Minimum temperature yesterday: 52 °F (at 11:00 PM)
Average temperature yesterday: 59 °F

Past Weeks' High & Low Weather Summary

 TemperatureHumidityPressure
High75 °F (Sep 17, 5:00 PM)100% (Sep 21, 5:00 AM)30.20 "Hg (Sep 21, 5:00 AM)
Low48 °F (Sep 12, 4:00 AM)50% (Sep 8, 4:00 PM)29.86 "Hg (Sep 17, 6:00 PM)
Average60 °F85%30.02 "Hg
* Reported Sep 7 6:00 AM — Sep 22 6:00 AM, Bad Nauheim, Weather by CustomWeather, © 2014

Note: Actual official high and low records may vary slightly from our data, if they occured in-between our weather recording intervals... More about our weather records

Advertising

Bad Nauheim weather history for previous 24 hours

 ConditionsComfort  
Time TempWeatherWind HumidityBarometerVisibility
6:00 AM
Sep 22
50 °FFog.5 mph94%30.08 "Hg4 mi
5:00 AM51 °FOvercast.3 mph92%30.08 "Hg6 mi
4:00 AM49 °FFog.3 mph96%30.09 "Hg3 mi
3:00 AM49 °FFog.6 mph96%30.09 "Hg2 mi
2:00 AM49 °FFog.3 mph96%30.09 "Hg3 mi
1:00 AM49 °FFog.3 mph95%30.09 "Hg4 mi
12:00 AM52 °FLight fog.3 mph89%30.07 "Hg7 mi
11:00 PM
Sep 21
52 °FClear.2 mph94%30.07 "Hg11 mi
10:00 PM54 °FOvercast.2 mph91%30.06 "Hg15 mi
9:00 PM56 °FOvercast.3 mph85%30.04 "Hg25 mi
8:00 PM56 °FOvercast.3 mph86%30.02 "Hg22 mi
7:00 PM60 °FOvercast.6 mph74%30.00 "Hg31 mi
6:00 PM60 °FOvercast.3 mph83%29.99 "Hg28 mi
5:00 PM62 °FOvercast.3 mph86%29.97 "Hg31 mi
4:00 PM62 °FOvercast.2 mph89%29.96 "Hg34 mi
3:00 PM60 °FLight rain. Low clouds.3 mph93%29.97 "Hg15 mi
2:00 PM61 °FLight rain. Low clouds.3 mph95%29.97 "Hg6 mi
1:00 PM62 °FLow clouds.3 mph97%29.95 "Hg6 mi
12:00 PM61 °FLow clouds.3 mph98%29.96 "Hg4 mi
11:00 AM61 °FLow clouds.3 mph98%29.96 "Hg4 mi
10:00 AM60 °FLight rain. Low clouds.2 mph99%29.95 "Hg3 mi
9:00 AM59 °FRain. Low clouds.2 mph99%29.95 "Hg1 mi
8:00 AM59 °FLight freezing rain. Low clouds.2 mph99%29.95 "Hg2 mi
7:00 AM59 °FRain. Low clouds.2 mph99%29.95 "Hg1 mi
Weather by CustomWeather, © 2014

See weather overviewHow to use our weather pages